Location: Caltech
(34.1382°N, 118.1253°W)
Time: 04:55:22
(UTC-07:00)

CZ-2C R/B - Visible Passes

Search period start: 26 August 2016 00:00
Search period end: 05 September 2016 00:00
Orbit: 669 x 784 km, 98.1° (Epoch: 25 August)

Date Brightness Start Highest point End Pass type
(mag) Time Alt. Az. Time Alt. Az. Time Alt. Az.
26 Aug 5.4 19:46:44 10° SW 19:50:18 19° W 19:53:55 10° NW visible
28 Aug 5.4 19:49:25 10° SW 19:52:49 18° W 19:56:16 10° NW visible
30 Aug 5.5 19:52:07 10° SW 19:55:21 17° W 19:58:35 10° NW visible
01 Sep 5.5 19:54:52 10° SW 19:57:52 15° W 20:00:53 10° WNW visible
03 Sep 5.6 19:57:37 10° SW 20:00:23 14° W 20:03:10 10° WNW visible
